• în Republica Moldova
  • Lista ţărilor
  • Pe 7 zile
  • Temperatura apei
  • Hartă satelitară
  • Meteo pe hartă
  • Widget-uri
  • user-avatar
    Intrare

    Meteo pe oră la Nachiczewan

    Astăzi, 28 Iunie, Miercuri

    Timp Temperatura Precipitaţii Vânt Presiune Umiditate
    00:00 +28°C° 0 mm 2 m/s 686 mmHg 48%
    01:00 +27°C° 0 mm 2 m/s 686 mmHg 49%
    02:00 +26°C° 0 mm 2 m/s 686 mmHg 50%
    03:00 +26°C° 0 mm 2 m/s 685 mmHg 50%
    04:00 +27°C° 0 mm 2 m/s 685 mmHg 49%
    05:00 +27°C° 0 mm 1 m/s 686 mmHg 48%
    06:00 +28°C° 0 mm 1 m/s 686 mmHg 47%
    07:00 +30°C° 0 mm 1 m/s 686 mmHg 41%
    08:00 +32°C° 0 mm 1 m/s 686 mmHg 35%
    09:00 +35°C° 0 mm 1 m/s 686 mmHg 28%
    10:00 +37°C° 0 mm 2 m/s 686 mmHg 25%
    11:00 +38°C° 0 mm 2 m/s 686 mmHg 23%
    12:00 +39°C° 0 mm 2 m/s 686 mmHg 20%
    13:00 +40°C° 0 mm 2 m/s 686 mmHg 18%
    14:00 +42°C° 0 mm 3 m/s 685 mmHg 17%
    15:00 +43°C° 0 mm 3 m/s 685 mmHg 15%
    16:00 +42°C° 0 mm 3 m/s 685 mmHg 17%
    17:00 +41°C° 0 mm 4 m/s 684 mmHg 19%
    18:00 +40°C° 0 mm 4 m/s 684 mmHg 20%
    19:00 +37°C° 0 mm 3 m/s 684 mmHg 27%
    20:00 +34°C° 0 mm 3 m/s 684 mmHg 34%
    21:00 +31°C° 0 mm 2 m/s 684 mmHg 41%
    22:00 +30°C° 0 mm 2 m/s 684 mmHg 44%
    23:00 +29°C° 0 mm 2 m/s 684 mmHg 47%

    Mâine, 29 Iunie, Joi

    Timp Temperatura Precipitaţii Vânt Presiune Umiditate
    00:00 +28°C° 0 mm 2 m/s 684 mmHg 50%
    01:00 +27°C° 0 mm 2 m/s 684 mmHg 51%
    02:00 +27°C° 0 mm 2 m/s 684 mmHg 53%
    03:00 +26°C° 0 mm 2 m/s 684 mmHg 55%
    04:00 +26°C° 0 mm 2 m/s 685 mmHg 54%
    05:00 +27°C° 0 mm 1 m/s 685 mmHg 53%
    06:00 +27°C° 0 mm 1 m/s 685 mmHg 51%
    07:00 +29°C° 0 mm 1 m/s 685 mmHg 45%
    08:00 +31°C° 0 mm 1 m/s 685 mmHg 38%
    09:00 +33°C° 0 mm 1 m/s 686 mmHg 32%
    10:00 +34°C° 0 mm 1 m/s 685 mmHg 28%
    11:00 +36°C° 0 mm 2 m/s 685 mmHg 24%
    12:00 +38°C° 0 mm 2 m/s 685 mmHg 21%
    13:00 +38°C° 0 mm 2 m/s 685 mmHg 19%
    14:00 +39°C° 0 mm 2 m/s 684 mmHg 18%
    15:00 +39°C° 0 mm 3 m/s 684 mmHg 17%
    16:00 +39°C° 0 mm 3 m/s 684 mmHg 18%
    17:00 +38°C° 0 mm 4 m/s 684 mmHg 20%
    18:00 +37°C° 0 mm 4 m/s 683 mmHg 21%
    19:00 +35°C° 0 mm 3 m/s 684 mmHg 26%
    20:00 +31°C° 0 mm 3 m/s 684 mmHg 31%
    21:00 +29°C° 0 mm 2 m/s 684 mmHg 36%
    22:00 +28°C° 0,1 mm 2 m/s 684 mmHg 37%
    23:00 +27°C° 0,1 mm 2 m/s 684 mmHg 39%

    Poimâine, 30 Iunie, Vineri

    Timp Temperatura Precipitaţii Vânt Presiune Umiditate
    00:00 +26°C° 0,1 mm 2 m/s 684 mmHg 41%
    01:00 +26°C° 0,1 mm 2 m/s 684 mmHg 43%
    02:00 +25°C° 0,1 mm 2 m/s 684 mmHg 44%
    03:00 +24°C° 0,1 mm 2 m/s 684 mmHg 45%
    04:00 +25°C° 0,1 mm 2 m/s 684 mmHg 44%
    05:00 +25°C° 0,1 mm 2 m/s 685 mmHg 43%
    06:00 +25°C° 0,1 mm 2 m/s 685 mmHg 42%
    07:00 +27°C° 0 mm 2 m/s 685 mmHg 38%
    08:00 +29°C° 0 mm 2 m/s 685 mmHg 34%
    09:00 +31°C° 0 mm 2 m/s 685 mmHg 29%
    10:00 +32°C° 0 mm 2 m/s 685 mmHg 26%
    11:00 +34°C° 0 mm 2 m/s 685 mmHg 23%
    12:00 +36°C° 0 mm 2 m/s 685 mmHg 20%
    13:00 +36°C° 0 mm 3 m/s 685 mmHg 19%
    14:00 +36°C° 0 mm 3 m/s 685 mmHg 18%
    15:00 +37°C° 0 mm 3 m/s 684 mmHg 17%
    16:00 +36°C° 0 mm 4 m/s 684 mmHg 17%
    17:00 +36°C° 0 mm 4 m/s 685 mmHg 18%
    18:00 +35°C° 0 mm 5 m/s 685 mmHg 18%
    19:00 +33°C° 0 mm 4 m/s 685 mmHg 21%
    20:00 +29°C° 0 mm 3 m/s 685 mmHg 24%
    21:00 +27°C° 0 mm 3 m/s 686 mmHg 27%
    22:00 +26°C° 0 mm 3 m/s 686 mmHg 29%
    23:00 +26°C° 0 mm 2 m/s 686 mmHg 30%

    1 Iulie, Sâmbătă

    Timp Temperatura Precipitaţii Vânt Presiune Umiditate
    00:00 +25°C° 0 mm 2 m/s 686 mmHg 32%
    01:00 +24°C° 0 mm 2 m/s 686 mmHg 33%
    02:00 +23°C° 0 mm 2 m/s 686 mmHg 35%
    03:00 +23°C° 0 mm 2 m/s 686 mmHg 36%
    04:00 +23°C° 0 mm 2 m/s 686 mmHg 35%
    05:00 +24°C° 0 mm 2 m/s 687 mmHg 34%
    06:00 +24°C° 0 mm 2 m/s 687 mmHg 33%
    07:00 +26°C° 0 mm 2 m/s 687 mmHg 29%
    08:00 +28°C° 0 mm 2 m/s 688 mmHg 25%
    09:00 +30°C° 0 mm 2 m/s 688 mmHg 21%
    10:00 +31°C° 0 mm 2 m/s 688 mmHg 19%
    11:00 +34°C° 0 mm 3 m/s 688 mmHg 17%
    12:00 +35°C° 0 mm 3 m/s 688 mmHg 14%
    13:00 +36°C° 0 mm 3 m/s 687 mmHg 14%
    14:00 +36°C° 0 mm 4 m/s 687 mmHg 13%
    15:00 +37°C° 0 mm 4 m/s 687 mmHg 13%
    16:00 +36°C° 0 mm 4 m/s 687 mmHg 14%
    17:00 +36°C° 0 mm 5 m/s 687 mmHg 15%
    18:00 +35°C° 0 mm 5 m/s 687 mmHg 17%
    19:00 +32°C° 0 mm 4 m/s 687 mmHg 20%
    20:00 +29°C° 0 mm 3 m/s 687 mmHg 24%
    21:00 +27°C° 0 mm 2 m/s 688 mmHg 28%
    22:00 +26°C° 0 mm 2 m/s 688 mmHg 30%
    23:00 +25°C° 0 mm 2 m/s 688 mmHg 32%

    2 Iulie, Duminică

    Timp Temperatura Precipitaţii Vânt Presiune Umiditate
    00:00 +24°C° 0 mm 2 m/s 688 mmHg 34%
    01:00 +24°C° 0 mm 2 m/s 687 mmHg 34%
    02:00 +23°C° 0 mm 2 m/s 687 mmHg 35%
    03:00 +23°C° 0 mm 2 m/s 687 mmHg 35%
    04:00 +23°C° 0 mm 2 m/s 687 mmHg 34%
    05:00 +24°C° 0 mm 1 m/s 687 mmHg 33%
    06:00 +24°C° 0 mm 1 m/s 687 mmHg 32%
    07:00 +27°C° 0 mm 1 m/s 687 mmHg 28%
    08:00 +29°C° 0 mm 1 m/s 688 mmHg 24%
    09:00 +31°C° 0 mm 1 m/s 688 mmHg 20%
    10:00 +34°C° 0 mm 2 m/s 687 mmHg 18%
    11:00 +35°C° 0 mm 2 m/s 687 mmHg 16%
    12:00 +37°C° 0 mm 3 m/s 687 mmHg 14%
    13:00 +38°C° 0 mm 3 m/s 687 mmHg 14%
    14:00 +38°C° 0 mm 4 m/s 686 mmHg 14%
    15:00 +40°C° 0 mm 4 m/s 686 mmHg 13%
    16:00 +38°C° 0 mm 4 m/s 686 mmHg 15%
    17:00 +37°C° 0 mm 5 m/s 686 mmHg 17%
    18:00 +37°C° 0 mm 5 m/s 686 mmHg 19%
    19:00 +34°C° 0,1 mm 4 m/s 686 mmHg 24%
    20:00 +31°C° 0,1 mm 3 m/s 686 mmHg 29%
    21:00 +28°C° 0,1 mm 2 m/s 686 mmHg 34%
    22:00 +27°C° 0 mm 2 m/s 686 mmHg 36%
    23:00 +27°C° 0 mm 2 m/s 686 mmHg 38%

    3 Iulie, Luni

    Timp Temperatura Precipitaţii Vânt Presiune Umiditate
    00:00 +26°C° 0 mm 2 m/s 686 mmHg 40%
    01:00 +25°C° 0 mm 1 m/s 685 mmHg 41%
    02:00 +25°C° 0 mm 1 m/s 685 mmHg 42%
    03:00 +24°C° 0 mm 1 m/s 685 mmHg 44%
    04:00 +25°C° 0 mm 1 m/s 685 mmHg 42%
    05:00 +26°C° 0 mm 1 m/s 685 mmHg 40%
    06:00 +26°C° 0 mm 1 m/s 685 mmHg 39%
    07:00 +29°C° 0 mm 1 m/s 685 mmHg 34%
    08:00 +31°C° 0 mm 1 m/s 686 mmHg 29%
    09:00 +33°C° 0 mm 1 m/s 686 mmHg 24%
    10:00 +34°C° 0 mm 1 m/s 685 mmHg 21%
    11:00 +36°C° 0 mm 1 m/s 685 mmHg 19%
    12:00 +38°C° 0 mm 2 m/s 685 mmHg 17%
    13:00 +39°C° 0 mm 2 m/s 685 mmHg 16%
    14:00 +40°C° 0 mm 2 m/s 684 mmHg 15%
    15:00 +40°C° 0 mm 2 m/s 684 mmHg 13%
    16:00 +39°C° 0,1 mm 2 m/s 684 mmHg 15%
    17:00 +39°C° 0,1 mm 2 m/s 684 mmHg 16%
    18:00 +38°C° 0,1 mm 3 m/s 684 mmHg 17%
    19:00 +35°C° 0 mm 2 m/s 684 mmHg 22%
    20:00 +32°C° 0 mm 2 m/s 684 mmHg 28%
    21:00 +30°C° 0 mm 2 m/s 684 mmHg 33%
    22:00 +29°C° 0 mm 2 m/s 684 mmHg 33%
    23:00 +28°C° 0 mm 2 m/s 684 mmHg 34%
    Arată mai mult